Ohyamamaru — JG5507 — position and weather

sailwx.info

Track history (hours):
 
Tides and Currents Weather Stations Pressure Air Temp Water Temp Dewpoint Dewpoint Depression Visibility Wind Speed Wind Dir Waves Ship Positions

Ohyamamaru

Last reported at 2014-Jul-29 12:34 UTC. Time now 2014-Jul-29 12:48 UTC.
Position N 35°38' E 139°45'.

Length 36 m; draft 4.4 m.

Type: Tug. MMSI: 431001114.

Date/timePositionNaut miles runAvg speedWind from/ knotsBaromVisibWave heightAir tempDewpointWater temp
2014-Jul-29 12:34N 35°38' E 139°45'0 0.0
2014-Jul-29 11:33N 35°38' E 139°45'0 0.0
2014-Jul-29 10:34N 35°38' E 139°45'0 0.0
2014-Jul-29 09:34N 35°38' E 139°45'0 0.0
2014-Jul-29 08:33N 35°38' E 139°45'0 0.0
2014-Jul-29 07:33N 35°38' E 139°45'0 0.0
2014-Jul-29 06:34N 35°38' E 139°45'0 0.0
2014-Jul-29 05:33N 35°38' E 139°45'0 0.0
2014-Jul-29 04:33N 35°38' E 139°45'0 0.0
2014-Jul-29 03:33N 35°38' E 139°45'0 0.0
2014-Jul-29 02:34N 35°38' E 139°45'0 0.0
2014-Jul-29 01:34N 35°38' E 139°45'0 0.0
2014-Jul-29 00:34N 35°38' E 139°45'0 0.0
2014-Jul-28 23:33N 35°38' E 139°45'0 0.0
2014-Jul-28 22:34N 35°38' E 139°45'0 0.0
2014-Jul-28 21:33N 35°38' E 139°45'0 0.0
2014-Jul-28 20:34N 35°38' E 139°45'0 0.0
2014-Jul-28 19:34N 35°38' E 139°45'0 0.0
2014-Jul-28 18:34N 35°38' E 139°45'0 0.0
2014-Jul-28 17:34N 35°38' E 139°45'0 0.0
2014-Jul-28 16:33N 35°38' E 139°45'0 0.0
2014-Jul-28 15:34N 35°38' E 139°45'1 1.0
2014-Jul-28 14:33N 35°37' E 139°46'3 2.9
2014-Jul-28 13:34N 35°35' E 139°48'1 1.2
2014-Jul-28 12:33N 35°35' E 139°47'0 0.0
2014-Jul-28 11:34N 35°35' E 139°47'0 0.0
2014-Jul-28 10:34N 35°35' E 139°47'0 0.0
2014-Jul-28 09:33N 35°35' E 139°47'1 1.4
2014-Jul-28 08:34N 35°37' E 139°46'2 1.6
2014-Jul-28 07:34N 35°38' E 139°45'0 0.0
2014-Jul-28 06:34N 35°38' E 139°45'0 0.0
2014-Jul-28 05:33N 35°38' E 139°45'0 0.0
2014-Jul-28 04:33N 35°38' E 139°45'0 0.0
2014-Jul-28 03:34N 35°38' E 139°45'0 0.0
2014-Jul-28 02:34N 35°38' E 139°45'0 0.0
2014-Jul-28 01:34N 35°38' E 139°45'0 0.0
2014-Jul-28 00:34N 35°38' E 139°45'0 0.0
2014-Jul-27 23:34N 35°38' E 139°45'0 0.0
2014-Jul-27 22:33N 35°38' E 139°45'0 0.0
2014-Jul-27 21:34N 35°38' E 139°45'0 0.0
2014-Jul-27 20:34N 35°38' E 139°45'0 0.0
2014-Jul-27 19:33N 35°38' E 139°45'0 0.0
2014-Jul-27 18:34N 35°38' E 139°45'0 0.0
2014-Jul-27 17:34N 35°38' E 139°45'0 0.0
2014-Jul-27 16:34N 35°38' E 139°45'0 0.0
2014-Jul-27 15:34N 35°38' E 139°45'0 0.0
2014-Jul-27 14:34N 35°38' E 139°45'0 0.0
2014-Jul-27 13:34N 35°38' E 139°45'0 0.0
2014-Jul-27 12:34N 35°38' E 139°45'0 0.0
2014-Jul-27 11:34N 35°38' E 139°45'0 0.0
2014-Jul-27 10:33N 35°38' E 139°45'0 0.0
2014-Jul-27 09:33N 35°38' E 139°45'0 0.0
2014-Jul-27 08:34N 35°38' E 139°45'0 0.0
2014-Jul-27 07:34N 35°38' E 139°45'4 4.3
2014-Jul-27 06:34N 35°35' E 139°48'4 4.3
2014-Jul-27 05:34N 35°38' E 139°46'0 0.0
2014-Jul-27 04:33N 35°38' E 139°46'0 0.0
2014-Jul-27 03:33N 35°38' E 139°46'0 0.0
2014-Jul-27 02:33N 35°38' E 139°46'0 0.0
2014-Jul-27 01:33N 35°38' E 139°46'0 0.0
2014-Jul-27 00:33N 35°38' E 139°46'0 0.0
2014-Jul-26 23:33N 35°38' E 139°46'0 0.0
2014-Jul-26 22:33N 35°38' E 139°46'0 0.0
2014-Jul-26 21:34N 35°38' E 139°46'0 0.0
2014-Jul-26 20:34N 35°38' E 139°46'0 0.0
2014-Jul-26 19:33N 35°38' E 139°46'0 0.0
2014-Jul-26 18:33N 35°38' E 139°46'0 0.0
2014-Jul-26 17:33N 35°38' E 139°46'0 0.0
2014-Jul-26 16:33N 35°38' E 139°46'0 0.0
2014-Jul-26 15:33N 35°38' E 139°46'0 0.0
2014-Jul-26 14:32N 35°38' E 139°46'0 0.0
2014-Jul-26 13:34N 35°38' E 139°46'2 2.5
2014-Jul-26 12:34N 35°36' E 139°47'2 2.5
2014-Jul-26 11:33N 35°38' E 139°45'2 2.4
2014-Jul-26 10:34N 35°36' E 139°47'3 2.9
2014-Jul-26 09:34N 35°34' E 139°50'4 4.0
2014-Jul-26 08:34N 35°37' E 139°46'0 0.3
2014-Jul-26 07:33N 35°37' E 139°46'1 1.2
2014-Jul-26 06:34N 35°38' E 139°45'0 0.0
2014-Jul-26 05:32N 35°38' E 139°45'0 0.0
2014-Jul-26 04:34N 35°38' E 139°45'0 0.0
2014-Jul-26 03:33N 35°38' E 139°45'0 0.0
2014-Jul-26 02:33N 35°38' E 139°45'0 0.0
2014-Jul-26 01:33N 35°38' E 139°45'0 0.0
2014-Jul-26 00:33N 35°38' E 139°45'0 0.0
2014-Jul-25 23:33N 35°38' E 139°45'0 0.0
2014-Jul-25 22:34N 35°38' E 139°45'0 0.0
2014-Jul-25 21:33N 35°38' E 139°45'0 0.0
2014-Jul-25 20:34N 35°38' E 139°45'0 0.0
2014-Jul-25 19:33N 35°38' E 139°45'0 0.0
2014-Jul-25 18:33N 35°38' E 139°45'0 0.0
2014-Jul-25 17:34N 35°38' E 139°45'0 0.0
2014-Jul-25 16:33N 35°38' E 139°45'0 0.0
2014-Jul-25 15:34N 35°38' E 139°45'0 0.0
2014-Jul-25 14:33N 35°38' E 139°45'0 0.0
2014-Jul-25 13:33N 35°38' E 139°45'0 0.0
2014-Jul-25 12:34N 35°38' E 139°45'0 0.0
2014-Jul-25 11:34N 35°38' E 139°45'0 0.0
2014-Jul-25 10:34N 35°38' E 139°45'0 0.0
2014-Jul-25 09:33N 35°38' E 139°45'0 0.0
2014-Jul-25 08:34N 35°38' E 139°45'0 0.0
2014-Jul-25 07:33N 35°38' E 139°45'0 0.0
2014-Jul-25 06:34N 35°38' E 139°45'0 0.0
2014-Jul-25 05:33N 35°38' E 139°45'0 0.0
2014-Jul-25 04:33N 35°38' E 139°45'0 0.0
2014-Jul-25 03:33N 35°38' E 139°45'0 0.0
2014-Jul-25 02:33N 35°38' E 139°45'0 0.0
2014-Jul-25 01:33N 35°38' E 139°45'0 0.0
2014-Jul-25 00:34N 35°38' E 139°45'0 0.0
2014-Jul-24 23:34N 35°38' E 139°45'0 0.0
2014-Jul-24 22:34N 35°38' E 139°45'0 0.0
2014-Jul-24 21:34N 35°38' E 139°45'0 0.0
2014-Jul-24 20:34N 35°38' E 139°45'0 0.0
2014-Jul-24 19:34N 35°38' E 139°45'0 0.0
2014-Jul-24 18:33N 35°38' E 139°45'0 0.0
2014-Jul-24 17:33N 35°38' E 139°45'0 0.0
2014-Jul-24 16:33N 35°38' E 139°45'0 0.0
2014-Jul-24 15:33N 35°38' E 139°45'0 0.0
2014-Jul-24 14:33N 35°38' E 139°45'0 0.0
2014-Jul-24 13:34N 35°38' E 139°45'0 0.0
2014-Jul-24 12:34N 35°38' E 139°45'0 0.0
2014-Jul-24 11:34N 35°38' E 139°45'0 0.0
2014-Jul-24 10:34N 35°38' E 139°45'0 0.0
2014-Jul-24 09:33N 35°38' E 139°45'0 0.0
2014-Jul-24 08:34N 35°38' E 139°45'0 0.0
2014-Jul-24 07:34N 35°38' E 139°45'0 0.0
2014-Jul-24 06:33N 35°38' E 139°45'0 0.0
2014-Jul-24 05:33N 35°38' E 139°45'0 0.0
2014-Jul-24 04:34N 35°38' E 139°45'0 0.0
2014-Jul-24 03:34N 35°38' E 139°45'0 0.0
2014-Jul-24 02:34N 35°38' E 139°45'0 0.0
2014-Jul-24 01:34N 35°38' E 139°45'0 0.0
2014-Jul-24 00:34N 35°38' E 139°45'1 1.4
2014-Jul-23 23:33N 35°37' E 139°46'3 2.6
2014-Jul-23 22:34N 35°35' E 139°48'4 3.5
2014-Jul-23 21:33N 35°38' E 139°46'0 0.4
2014-Jul-23 20:34N 35°38' E 139°45'0 0.0
2014-Jul-23 19:33N 35°38' E 139°45'0 0.0
2014-Jul-23 18:33N 35°38' E 139°45'0 0.0
2014-Jul-23 17:34N 35°38' E 139°45'0 0.0
2014-Jul-23 16:33N 35°38' E 139°45'0 0.0
2014-Jul-23 15:33N 35°38' E 139°45'0 0.0
2014-Jul-23 14:34N 35°38' E 139°45'0 0.0
2014-Jul-23 13:34N 35°38' E 139°45'0 0.0
2014-Jul-23 12:34N 35°38' E 139°45'0 0.0
2014-Jul-23 11:33N 35°38' E 139°45'0 0.0
2014-Jul-23 10:33N 35°38' E 139°45'2 1.9
2014-Jul-23 09:33N 35°37' E 139°47'1 0.6
2014-Jul-23 08:34N 35°36' E 139°47'2 2.4
2014-Jul-23 07:34N 35°38' E 139°45'0 0.0
2014-Jul-23 06:33N 35°38' E 139°45'0 0.0
2014-Jul-22 23:33N 35°38' E 139°45'3 3.0
2014-Jul-22 22:33N 35°35' E 139°47'4 4.1
2014-Jul-22 21:33N 35°34' E 139°51'5 4.8
2014-Jul-22 20:33N 35°36' E 139°47'0 0.5
2014-Jul-22 19:34N 35°37' E 139°46'0 0.2
2014-Jul-22 18:33N 35°37' E 139°46'1 1.4
2014-Jul-22 17:33N 35°38' E 139°45'0 0.0
2014-Jul-22 16:33N 35°38' E 139°45'0 0.0
2014-Jul-22 15:33N 35°38' E 139°45'0 0.0
2014-Jul-22 14:33N 35°38' E 139°45'0 0.0
2014-Jul-22 13:33N 35°38' E 139°45'0 0.0
2014-Jul-22 12:33N 35°38' E 139°45'0 0.0
2014-Jul-22 11:33N 35°38' E 139°45'0 0.0
2014-Jul-22 10:34N 35°38' E 139°45'0 0.0
2014-Jul-22 09:33N 35°38' E 139°45'0 0.0
2014-Jul-22 08:33N 35°38' E 139°45'0 0.0
2014-Jul-22 07:33N 35°38' E 139°45'0 0.0
2014-Jul-22 06:33N 35°38' E 139°45'0 0.0
2014-Jul-22 05:33N 35°38' E 139°45'0 0.0
2014-Jul-22 04:33N 35°38' E 139°45'0 0.0
2014-Jul-22 03:33N 35°38' E 139°45'0 0.0
2014-Jul-22 02:33N 35°38' E 139°45'2 2.2
2014-Jul-22 01:33N 35°36' E 139°47'1 1.0
2014-Jul-22 00:33N 35°37' E 139°46'1 1.3
2014-Jul-21 23:33N 35°38' E 139°45'0 0.0
2014-Jul-21 22:33N 35°38' E 139°45'0 0.0
2014-Jul-21 21:33N 35°38' E 139°45'0 0.0
2014-Jul-21 20:33N 35°38' E 139°45'0 0.0
2014-Jul-21 20:17N 35°38' E 139°45'0 0.0
2014-Jul-21 19:33N 35°38' E 139°45'0 0.0
2014-Jul-21 18:33N 35°38' E 139°45'0 0.0
2014-Jul-21 17:33N 35°38' E 139°45'0 0.0
2014-Jul-21 16:34N 35°38' E 139°45'0 0.0
2014-Jul-21 15:33N 35°38' E 139°45'0 0.0
2014-Jul-21 14:33N 35°38' E 139°45'0 0.0
2014-Jul-21 13:33N 35°38' E 139°45'0 0.0
2014-Jul-21 12:33N 35°38' E 139°45'0 0.0
2014-Jul-21 11:33N 35°38' E 139°45'0 0.0
2014-Jul-21 10:33N 35°38' E 139°45'0 0.0
2014-Jul-21 09:33N 35°38' E 139°45'0 0.0
2014-Jul-21 08:33N 35°38' E 139°45'2 2.2
2014-Jul-21 07:33N 35°36' E 139°47'2 2.2
2014-Jul-21 06:33N 35°38' E 139°45'0 0.0
2014-Jul-21 05:33N 35°38' E 139°45'0 0.0
2014-Jul-21 04:33N 35°38' E 139°45'0 0.0
2014-Jul-21 03:33N 35°38' E 139°45'0 0.0
2014-Jul-21 02:33N 35°38' E 139°45'0 0.0
2014-Jul-21 01:33N 35°38' E 139°45'0 0.0
2014-Jul-21 00:34N 35°38' E 139°45'2 1.8
2014-Jul-20 23:33N 35°37' E 139°47'2 1.8
2014-Jul-20 22:32N 35°38' E 139°45'0 0.0
2014-Jul-20 21:33N 35°38' E 139°45'0 0.0
2014-Jul-20 20:34N 35°38' E 139°45'0 0.0
2014-Jul-20 19:33N 35°38' E 139°45'0 0.0
2014-Jul-20 18:33N 35°38' E 139°45'0 0.0
2014-Jul-20 17:33N 35°38' E 139°45'0 0.0
2014-Jul-20 16:33N 35°38' E 139°45'0 0.0
2014-Jul-20 15:33N 35°38' E 139°45'0 0.0
2014-Jul-20 14:33N 35°38' E 139°45'0 0.0
2014-Jul-20 13:33N 35°38' E 139°45'0 0.0
2014-Jul-20 12:33N 35°38' E 139°45'0 0.0
2014-Jul-20 11:33N 35°38' E 139°45'0 0.0
2014-Jul-20 10:33N 35°38' E 139°45'0 0.0
2014-Jul-20 09:33N 35°38' E 139°45'0 0.0
2014-Jul-20 08:33N 35°38' E 139°45'0 0.0
2014-Jul-20 07:33N 35°38' E 139°45'0 0.0
2014-Jul-20 06:33N 35°38' E 139°45'0 0.0
2014-Jul-20 05:33N 35°38' E 139°45'0 0.0
2014-Jul-20 04:33N 35°38' E 139°45'0 0.0
2014-Jul-20 03:33N 35°38' E 139°45'0 0.0
2014-Jul-20 02:33N 35°38' E 139°45'0 0.0
2014-Jul-20 01:33N 35°38' E 139°45'0 0.0
2014-Jul-20 00:33N 35°38' E 139°45'0 0.0
2014-Jul-19 23:33N 35°38' E 139°45'0 0.0
2014-Jul-19 22:33N 35°38' E 139°45'0 0.0
2014-Jul-19 21:33N 35°38' E 139°45'0 0.0
2014-Jul-19 20:34N 35°38' E 139°45'0 0.0
2014-Jul-19 19:33N 35°38' E 139°45'0 0.0
2014-Jul-19 18:33N 35°38' E 139°45'0 0.0
2014-Jul-19 17:33N 35°38' E 139°45'0 0.0
2014-Jul-19 16:32N 35°38' E 139°45'0 0.0
2014-Jul-19 15:33N 35°38' E 139°45'0 0.0
2014-Jul-19 14:33N 35°38' E 139°45'0 0.0
2014-Jul-19 13:33N 35°38' E 139°45'  
Track history (hours):
 
Tides and Currents Weather Stations Pressure Air Temp Water Temp Dewpoint Dewpoint Depression Visibility Wind Speed Wind Dir Waves Ship Positions

Ohyamamaru

Last reported at 2014-Jul-29 12:34 UTC. Time now 2014-Jul-29 12:48 UTC.
Position N 35°38' E 139°45'.

Length 36 m; draft 4.4 m.

Type: Tug. MMSI: 431001114.

Date/timePositionNaut miles runAvg speedWind from/ knotsBaromVisibWave heightAir tempDewpointWater temp
2014-Jul-29 12:34N 35°38' E 139°45'0 0.0
2014-Jul-29 11:33N 35°38' E 139°45'0 0.0
2014-Jul-29 10:34N 35°38' E 139°45'0 0.0
2014-Jul-29 09:34N 35°38' E 139°45'0 0.0
2014-Jul-29 08:33N 35°38' E 139°45'0 0.0
2014-Jul-29 07:33N 35°38' E 139°45'0 0.0
2014-Jul-29 06:34N 35°38' E 139°45'0 0.0
2014-Jul-29 05:33N 35°38' E 139°45'0 0.0
2014-Jul-29 04:33N 35°38' E 139°45'0 0.0
2014-Jul-29 03:33N 35°38' E 139°45'0 0.0
2014-Jul-29 02:34N 35°38' E 139°45'0 0.0
2014-Jul-29 01:34N 35°38' E 139°45'0 0.0
2014-Jul-29 00:34N 35°38' E 139°45'0 0.0
2014-Jul-28 23:33N 35°38' E 139°45'0 0.0
2014-Jul-28 22:34N 35°38' E 139°45'0 0.0
2014-Jul-28 21:33N 35°38' E 139°45'0 0.0
2014-Jul-28 20:34N 35°38' E 139°45'0 0.0
2014-Jul-28 19:34N 35°38' E 139°45'0 0.0
2014-Jul-28 18:34N 35°38' E 139°45'0 0.0
2014-Jul-28 17:34N 35°38' E 139°45'0 0.0
2014-Jul-28 16:33N 35°38' E 139°45'0 0.0
2014-Jul-28 15:34N 35°38' E 139°45'1 1.0
2014-Jul-28 14:33N 35°37' E 139°46'3 2.9
2014-Jul-28 13:34N 35°35' E 139°48'1 1.2
2014-Jul-28 12:33N 35°35' E 139°47'0 0.0
2014-Jul-28 11:34N 35°35' E 139°47'0 0.0
2014-Jul-28 10:34N 35°35' E 139°47'0 0.0
2014-Jul-28 09:33N 35°35' E 139°47'1 1.4
2014-Jul-28 08:34N 35°37' E 139°46'2 1.6
2014-Jul-28 07:34N 35°38' E 139°45'0 0.0
2014-Jul-28 06:34N 35°38' E 139°45'0 0.0
2014-Jul-28 05:33N 35°38' E 139°45'0 0.0
2014-Jul-28 04:33N 35°38' E 139°45'0 0.0
2014-Jul-28 03:34N 35°38' E 139°45'0 0.0
2014-Jul-28 02:34N 35°38' E 139°45'0 0.0
2014-Jul-28 01:34N 35°38' E 139°45'0 0.0
2014-Jul-28 00:34N 35°38' E 139°45'0 0.0
2014-Jul-27 23:34N 35°38' E 139°45'0 0.0
2014-Jul-27 22:33N 35°38' E 139°45'0 0.0
2014-Jul-27 21:34N 35°38' E 139°45'0 0.0
2014-Jul-27 20:34N 35°38' E 139°45'0 0.0
2014-Jul-27 19:33N 35°38' E 139°45'0 0.0
2014-Jul-27 18:34N 35°38' E 139°45'0 0.0
2014-Jul-27 17:34N 35°38' E 139°45'0 0.0
2014-Jul-27 16:34N 35°38' E 139°45'0 0.0
2014-Jul-27 15:34N 35°38' E 139°45'0 0.0
2014-Jul-27 14:34N 35°38' E 139°45'0 0.0
2014-Jul-27 13:34N 35°38' E 139°45'0 0.0
2014-Jul-27 12:34N 35°38' E 139°45'0 0.0
2014-Jul-27 11:34N 35°38' E 139°45'0 0.0
2014-Jul-27 10:33N 35°38' E 139°45'0 0.0
2014-Jul-27 09:33N 35°38' E 139°45'0 0.0
2014-Jul-27 08:34N 35°38' E 139°45'0 0.0
2014-Jul-27 07:34N 35°38' E 139°45'4 4.3
2014-Jul-27 06:34N 35°35' E 139°48'4 4.3
2014-Jul-27 05:34N 35°38' E 139°46'0 0.0
2014-Jul-27 04:33N 35°38' E 139°46'0 0.0
2014-Jul-27 03:33N 35°38' E 139°46'0 0.0
2014-Jul-27 02:33N 35°38' E 139°46'0 0.0
2014-Jul-27 01:33N 35°38' E 139°46'0 0.0
2014-Jul-27 00:33N 35°38' E 139°46'0 0.0
2014-Jul-26 23:33N 35°38' E 139°46'0 0.0
2014-Jul-26 22:33N 35°38' E 139°46'0 0.0
2014-Jul-26 21:34N 35°38' E 139°46'0 0.0
2014-Jul-26 20:34N 35°38' E 139°46'0 0.0
2014-Jul-26 19:33N 35°38' E 139°46'0 0.0
2014-Jul-26 18:33N 35°38' E 139°46'0 0.0
2014-Jul-26 17:33N 35°38' E 139°46'0 0.0
2014-Jul-26 16:33N 35°38' E 139°46'0 0.0
2014-Jul-26 15:33N 35°38' E 139°46'0 0.0
2014-Jul-26 14:32N 35°38' E 139°46'0 0.0
2014-Jul-26 13:34N 35°38' E 139°46'2 2.5
2014-Jul-26 12:34N 35°36' E 139°47'2 2.5
2014-Jul-26 11:33N 35°38' E 139°45'2 2.4
2014-Jul-26 10:34N 35°36' E 139°47'3 2.9
2014-Jul-26 09:34N 35°34' E 139°50'4 4.0
2014-Jul-26 08:34N 35°37' E 139°46'0 0.3
2014-Jul-26 07:33N 35°37' E 139°46'1 1.2
2014-Jul-26 06:34N 35°38' E 139°45'0 0.0
2014-Jul-26 05:32N 35°38' E 139°45'0 0.0
2014-Jul-26 04:34N 35°38' E 139°45'0 0.0
2014-Jul-26 03:33N 35°38' E 139°45'0 0.0
2014-Jul-26 02:33N 35°38' E 139°45'0 0.0
2014-Jul-26 01:33N 35°38' E 139°45'0 0.0
2014-Jul-26 00:33N 35°38' E 139°45'0 0.0
2014-Jul-25 23:33N 35°38' E 139°45'0 0.0
2014-Jul-25 22:34N 35°38' E 139°45'0 0.0
2014-Jul-25 21:33N 35°38' E 139°45'0 0.0
2014-Jul-25 20:34N 35°38' E 139°45'0 0.0
2014-Jul-25 19:33N 35°38' E 139°45'0 0.0
2014-Jul-25 18:33N 35°38' E 139°45'0 0.0
2014-Jul-25 17:34N 35°38' E 139°45'0 0.0
2014-Jul-25 16:33N 35°38' E 139°45'0 0.0
2014-Jul-25 15:34N 35°38' E 139°45'0 0.0
2014-Jul-25 14:33N 35°38' E 139°45'0 0.0
2014-Jul-25 13:33N 35°38' E 139°45'0 0.0
2014-Jul-25 12:34N 35°38' E 139°45'0 0.0
2014-Jul-25 11:34N 35°38' E 139°45'0 0.0
2014-Jul-25 10:34N 35°38' E 139°45'0 0.0
2014-Jul-25 09:33N 35°38' E 139°45'0 0.0
2014-Jul-25 08:34N 35°38' E 139°45'0 0.0
2014-Jul-25 07:33N 35°38' E 139°45'0 0.0
2014-Jul-25 06:34N 35°38' E 139°45'0 0.0
2014-Jul-25 05:33N 35°38' E 139°45'0 0.0
2014-Jul-25 04:33N 35°38' E 139°45'0 0.0
2014-Jul-25 03:33N 35°38' E 139°45'0 0.0
2014-Jul-25 02:33N 35°38' E 139°45'0 0.0
2014-Jul-25 01:33N 35°38' E 139°45'0 0.0
2014-Jul-25 00:34N 35°38' E 139°45'0 0.0
2014-Jul-24 23:34N 35°38' E 139°45'0 0.0
2014-Jul-24 22:34N 35°38' E 139°45'0 0.0
2014-Jul-24 21:34N 35°38' E 139°45'0 0.0
2014-Jul-24 20:34N 35°38' E 139°45'0 0.0
2014-Jul-24 19:34N 35°38' E 139°45'0 0.0
2014-Jul-24 18:33N 35°38' E 139°45'0 0.0
2014-Jul-24 17:33N 35°38' E 139°45'0 0.0
2014-Jul-24 16:33N 35°38' E 139°45'0 0.0
2014-Jul-24 15:33N 35°38' E 139°45'0 0.0
2014-Jul-24 14:33N 35°38' E 139°45'0 0.0
2014-Jul-24 13:34N 35°38' E 139°45'0 0.0
2014-Jul-24 12:34N 35°38' E 139°45'0 0.0
2014-Jul-24 11:34N 35°38' E 139°45'0 0.0
2014-Jul-24 10:34N 35°38' E 139°45'0 0.0
2014-Jul-24 09:33N 35°38' E 139°45'0 0.0
2014-Jul-24 08:34N 35°38' E 139°45'0 0.0
2014-Jul-24 07:34N 35°38' E 139°45'0 0.0
2014-Jul-24 06:33N 35°38' E 139°45'0 0.0
2014-Jul-24 05:33N 35°38' E 139°45'0 0.0
2014-Jul-24 04:34N 35°38' E 139°45'0 0.0
2014-Jul-24 03:34N 35°38' E 139°45'0 0.0
2014-Jul-24 02:34N 35°38' E 139°45'0 0.0
2014-Jul-24 01:34N 35°38' E 139°45'0 0.0
2014-Jul-24 00:34N 35°38' E 139°45'1 1.4
2014-Jul-23 23:33N 35°37' E 139°46'3 2.6
2014-Jul-23 22:34N 35°35' E 139°48'4 3.5
2014-Jul-23 21:33N 35°38' E 139°46'0 0.4
2014-Jul-23 20:34N 35°38' E 139°45'0 0.0
2014-Jul-23 19:33N 35°38' E 139°45'0 0.0
2014-Jul-23 18:33N 35°38' E 139°45'0 0.0
2014-Jul-23 17:34N 35°38' E 139°45'0 0.0
2014-Jul-23 16:33N 35°38' E 139°45'0 0.0
2014-Jul-23 15:33N 35°38' E 139°45'0 0.0
2014-Jul-23 14:34N 35°38' E 139°45'0 0.0
2014-Jul-23 13:34N 35°38' E 139°45'0 0.0
2014-Jul-23 12:34N 35°38' E 139°45'0 0.0
2014-Jul-23 11:33N 35°38' E 139°45'0 0.0
2014-Jul-23 10:33N 35°38' E 139°45'2 1.9
2014-Jul-23 09:33N 35°37' E 139°47'1 0.6
2014-Jul-23 08:34N 35°36' E 139°47'2 2.4
2014-Jul-23 07:34N 35°38' E 139°45'0 0.0
2014-Jul-23 06:33N 35°38' E 139°45'0 0.0
2014-Jul-22 23:33N 35°38' E 139°45'3 3.0
2014-Jul-22 22:33N 35°35' E 139°47'4 4.1
2014-Jul-22 21:33N 35°34' E 139°51'5 4.8
2014-Jul-22 20:33N 35°36' E 139°47'0 0.5
2014-Jul-22 19:34N 35°37' E 139°46'0 0.2
2014-Jul-22 18:33N 35°37' E 139°46'1 1.4
2014-Jul-22 17:33N 35°38' E 139°45'0 0.0
2014-Jul-22 16:33N 35°38' E 139°45'0 0.0
2014-Jul-22 15:33N 35°38' E 139°45'0 0.0
2014-Jul-22 14:33N 35°38' E 139°45'0 0.0
2014-Jul-22 13:33N 35°38' E 139°45'0 0.0
2014-Jul-22 12:33N 35°38' E 139°45'0 0.0
2014-Jul-22 11:33N 35°38' E 139°45'0 0.0
2014-Jul-22 10:34N 35°38' E 139°45'0 0.0
2014-Jul-22 09:33N 35°38' E 139°45'0 0.0
2014-Jul-22 08:33N 35°38' E 139°45'0 0.0
2014-Jul-22 07:33N 35°38' E 139°45'0 0.0
2014-Jul-22 06:33N 35°38' E 139°45'0 0.0
2014-Jul-22 05:33N 35°38' E 139°45'0 0.0
2014-Jul-22 04:33N 35°38' E 139°45'0 0.0
2014-Jul-22 03:33N 35°38' E 139°45'0 0.0
2014-Jul-22 02:33N 35°38' E 139°45'2 2.2
2014-Jul-22 01:33N 35°36' E 139°47'1 1.0
2014-Jul-22 00:33N 35°37' E 139°46'1 1.3
2014-Jul-21 23:33N 35°38' E 139°45'0 0.0
2014-Jul-21 22:33N 35°38' E 139°45'0 0.0
2014-Jul-21 21:33N 35°38' E 139°45'0 0.0
2014-Jul-21 20:33N 35°38' E 139°45'0 0.0
2014-Jul-21 20:17N 35°38' E 139°45'0 0.0
2014-Jul-21 19:33N 35°38' E 139°45'0 0.0
2014-Jul-21 18:33N 35°38' E 139°45'0 0.0
2014-Jul-21 17:33N 35°38' E 139°45'0 0.0
2014-Jul-21 16:34N 35°38' E 139°45'0 0.0
2014-Jul-21 15:33N 35°38' E 139°45'0 0.0
2014-Jul-21 14:33N 35°38' E 139°45'0 0.0
2014-Jul-21 13:33N 35°38' E 139°45'0 0.0
2014-Jul-21 12:33N 35°38' E 139°45'0 0.0
2014-Jul-21 11:33N 35°38' E 139°45'0 0.0
2014-Jul-21 10:33N 35°38' E 139°45'0 0.0
2014-Jul-21 09:33N 35°38' E 139°45'0 0.0
2014-Jul-21 08:33N 35°38' E 139°45'2 2.2
2014-Jul-21 07:33N 35°36' E 139°47'2 2.2
2014-Jul-21 06:33N 35°38' E 139°45'0 0.0
2014-Jul-21 05:33N 35°38' E 139°45'0 0.0
2014-Jul-21 04:33N 35°38' E 139°45'0 0.0
2014-Jul-21 03:33N 35°38' E 139°45'0 0.0
2014-Jul-21 02:33N 35°38' E 139°45'0 0.0
2014-Jul-21 01:33N 35°38' E 139°45'0 0.0
2014-Jul-21 00:34N 35°38' E 139°45'2 1.8
2014-Jul-20 23:33N 35°37' E 139°47'2 1.8
2014-Jul-20 22:32N 35°38' E 139°45'0 0.0
2014-Jul-20 21:33N 35°38' E 139°45'0 0.0
2014-Jul-20 20:34N 35°38' E 139°45'0 0.0
2014-Jul-20 19:33N 35°38' E 139°45'0 0.0
2014-Jul-20 18:33N 35°38' E 139°45'0 0.0
2014-Jul-20 17:33N 35°38' E 139°45'0 0.0
2014-Jul-20 16:33N 35°38' E 139°45'0 0.0
2014-Jul-20 15:33N 35°38' E 139°45'0 0.0
2014-Jul-20 14:33N 35°38' E 139°45'0 0.0
2014-Jul-20 13:33N 35°38' E 139°45'0 0.0
2014-Jul-20 12:33N 35°38' E 139°45'0 0.0
2014-Jul-20 11:33N 35°38' E 139°45'0 0.0
2014-Jul-20 10:33N 35°38' E 139°45'0 0.0
2014-Jul-20 09:33N 35°38' E 139°45'0 0.0
2014-Jul-20 08:33N 35°38' E 139°45'0 0.0
2014-Jul-20 07:33N 35°38' E 139°45'0 0.0
2014-Jul-20 06:33N 35°38' E 139°45'0 0.0
2014-Jul-20 05:33N 35°38' E 139°45'0 0.0
2014-Jul-20 04:33N 35°38' E 139°45'0 0.0
2014-Jul-20 03:33N 35°38' E 139°45'0 0.0
2014-Jul-20 02:33N 35°38' E 139°45'0 0.0
2014-Jul-20 01:33N 35°38' E 139°45'0 0.0
2014-Jul-20 00:33N 35°38' E 139°45'0 0.0
2014-Jul-19 23:33N 35°38' E 139°45'0 0.0
2014-Jul-19 22:33N 35°38' E 139°45'0 0.0
2014-Jul-19 21:33N 35°38' E 139°45'0 0.0
2014-Jul-19 20:34N 35°38' E 139°45'0 0.0
2014-Jul-19 19:33N 35°38' E 139°45'0 0.0
2014-Jul-19 18:33N 35°38' E 139°45'0 0.0
2014-Jul-19 17:33N 35°38' E 139°45'0 0.0
2014-Jul-19 16:32N 35°38' E 139°45'0 0.0
2014-Jul-19 15:33N 35°38' E 139°45'0 0.0
2014-Jul-19 14:33N 35°38' E 139°45'0 0.0
2014-Jul-19 13:33N 35°38' E 139°45'  

Dump ship's entire track history